User: anonymous   Login
Location: Unspecified
(0.0000°N, 0.0000°E)
Time: 18:06:04
(UTC+00:00)
Language:

TBA - TO BE ASSIGNED - Orbit

View from above orbital plane
View from above orbital plane
View from above satellite
View from above satellite

Ground track
Ground track

The orbit is defined by the following mean orbital elements,

1 68939U          26145.46484829 +.00000000 +00000-0 +56760-3 0 00008
2 68939  51.8742 177.4615 0011236  66.6161 293.6004 15.32836592    02
Epoch (UTC): 25 May 2026 11:09:22
Eccentricity: 0.0011236
inclination: 51.8742°
perigee height: 460 km
apogee height: 475 km
right ascension of ascending node: 177.4615°
argument of perigee: 66.6161°
revolutions per day: 15.32836592
mean anomaly at epoch: 293.6004°

The dashed part of the orbit path shows where the satellite is in the earth's shadow,  

DLR